Linden, WI

11:18 AM CST on February 20, 2017 (GMT -0600)
Iowa County

Weather History for KMRJ - February, 2013

Change the Weather History Date:

Thursday, February 28, 2013

  Actual Average (KLNR) Record (KLNR)
Temperature  
Mean Temperature 32 °F -  
Max Temperature 33 °F 33 °F 55 °F (2016)
Min Temperature 28 °F 18 °F -17 °F (2015)
Degree Days  
Heating Degree Days 34    
Moisture  
Dew Point 26 °F    
Average Humidity 79    
Maximum Humidity 93    
Minimum Humidity 69    
Precipitation  
Precipitation 0.00 in - - ()
Sea Level Pressure  
Sea Level Pressure 29.96 in    
Wind  
Wind Speed 12 mph (North)    
Max Wind Speed 15 mph    
Max Gust Speed 22 mph    
Visibility 10 miles    
Events Snow    
Averages and records for this station are not official NWS values.
T = Trace of Precipitation, MM = Missing Value Source: NWS Daily Summary

Daily Weather History Graph

Daily Weather History Graph

Search for Another Location

Airport or City:

Trip Planner

Search our weather history database for the weather conditions in past years. The results will help you decide how hot, cold, wet, or windy it might be!

Date:

Astronomy

Feb. 28, 2013 Rise Set
Actual Time 6:38 AM CST 5:49 PM CST
Civil Twilight 6:09 AM CST 6:17 PM CST
Nautical Twilight 5:36 AM CST 6:50 PM CST
Astronomical Twilight 5:04 AM CST 7:23 PM CST
Moon 9:23 PM CST (2/28) 7:42 AM CST (2/28)
Length of Visible Light 12h 08m
Length of Day
11h 11m
Waning Gibbous, 90% of the Moon is Illuminated
Feb 28
Waning Gibbous
Mar 4
Last Quarter
Mar 11
New
Mar 19
First Quarter
Mar 27
Full

Hourly Weather History & Observations

Time (CST) Temp. Windchill Dew Point Humidity Pressure Visibility Wind Dir Wind Speed Gust Speed Precip Events Conditions
12:15 AM 32.0 °F 22.1 °F 30.2 °F 93% 29.81 in 10.0 mi NNW 13.8 mph 17.3 mph N/A Snow Light Snow
12:35 AM 32.0 °F 21.6 °F 30.2 °F 93% 29.81 in 10.0 mi NNW 15.0 mph - N/A   Overcast
12:55 AM 32.0 °F 22.1 °F 30.2 °F 93% 29.81 in 10.0 mi North 13.8 mph 18.4 mph N/A   Overcast
1:15 AM 32.0 °F 23.0 °F 28.4 °F 87% 29.82 in 10.0 mi NNW 11.5 mph - N/A   Overcast
1:35 AM 32.0 °F 22.1 °F 28.4 °F 87% 29.82 in 10.0 mi North 13.8 mph 18.4 mph N/A   Overcast
1:55 AM 32.0 °F 22.5 °F 28.4 °F 87% 29.82 in 10.0 mi North 12.7 mph - N/A   Overcast
2:15 AM 32.0 °F 22.1 °F 28.4 °F 87% 29.82 in 10.0 mi North 13.8 mph 18.4 mph N/A   Overcast
2:35 AM 32.0 °F 23.6 °F 28.4 °F 87% 29.83 in 10.0 mi North 10.4 mph 17.3 mph N/A   Overcast
2:55 AM 32.0 °F 23.6 °F 28.4 °F 87% 29.83 in 10.0 mi North 10.4 mph - N/A   Overcast
3:15 AM 32.0 °F 23.6 °F 28.4 °F 87% 29.84 in 10.0 mi North 10.4 mph - N/A   Overcast
3:35 AM 32.0 °F 24.2 °F 28.4 °F 87% 29.84 in 10.0 mi North 9.2 mph - N/A   Overcast
3:55 AM 32.0 °F 23.0 °F 28.4 °F 87% 29.84 in 10.0 mi North 11.5 mph - N/A   Overcast
4:15 AM 32.0 °F 23.6 °F 28.4 °F 87% 29.85 in 10.0 mi NNW 10.4 mph - N/A   Overcast
4:55 AM 32.0 °F 22.5 °F 26.6 °F 80% 29.87 in 10.0 mi NNW 12.7 mph - N/A   Overcast
5:15 AM 32.0 °F 22.1 °F 26.6 °F 80% 29.87 in 10.0 mi NNW 13.8 mph 19.6 mph N/A   Overcast
5:35 AM 32.0 °F 22.1 °F 26.6 °F 80% 29.88 in 10.0 mi NNW 13.8 mph 19.6 mph N/A   Overcast
5:55 AM 32.0 °F 22.1 °F 26.6 °F 80% 29.89 in 10.0 mi North 13.8 mph - N/A   Overcast
6:15 AM 32.0 °F 22.5 °F 26.6 °F 80% 29.90 in 10.0 mi NNW 12.7 mph 18.4 mph N/A   Overcast
6:35 AM 32.0 °F 23.0 °F 28.4 °F 87% 29.91 in 10.0 mi NNW 11.5 mph - N/A   Overcast
6:55 AM 32.0 °F 24.2 °F 28.4 °F 87% 29.91 in 10.0 mi North 9.2 mph - N/A   Overcast
7:15 AM 32.0 °F 23.0 °F 26.6 °F 80% 29.92 in 10.0 mi North 11.5 mph 19.6 mph N/A   Overcast
7:35 AM 32.0 °F 23.0 °F 26.6 °F 80% 29.93 in 10.0 mi NNW 11.5 mph 17.3 mph N/A   Overcast
7:55 AM 32.0 °F 23.6 °F 26.6 °F 80% 29.93 in 10.0 mi North 10.4 mph - N/A   Overcast
8:15 AM 32.0 °F 22.5 °F 26.6 °F 80% 29.94 in 10.0 mi North 12.7 mph - N/A Snow Light Snow
8:35 AM 33.8 °F 25.8 °F 26.6 °F 75% 29.94 in 10.0 mi North 10.4 mph 19.6 mph N/A   Overcast
8:55 AM 33.8 °F 23.9 °F 26.6 °F 75% 29.95 in 10.0 mi North 15.0 mph - N/A Snow Light Snow
9:15 AM 33.8 °F 24.3 °F 26.6 °F 75% 29.95 in 10.0 mi North 13.8 mph - N/A   Overcast
9:35 AM 33.8 °F 24.8 °F 26.6 °F 75% 29.96 in 10.0 mi North 12.7 mph - N/A Snow Light Snow
9:55 AM 33.8 °F 23.9 °F 26.6 °F 75% 29.97 in 10.0 mi North 15.0 mph 18.4 mph N/A   Overcast
10:15 AM 33.8 °F 24.3 °F 28.4 °F 81% 29.97 in 10.0 mi NNW 13.8 mph 17.3 mph N/A   Overcast
10:35 AM 33.8 °F 24.3 °F 28.4 °F 81% 29.98 in 10.0 mi NNW 13.8 mph 18.4 mph N/A   Overcast
11:15 AM 33.8 °F 24.8 °F 26.6 °F 75% 29.99 in 10.0 mi NNW 12.7 mph 17.3 mph N/A   Overcast
11:35 AM 33.8 °F 23.9 °F 26.6 °F 75% 29.99 in 10.0 mi North 15.0 mph 20.7 mph N/A   Overcast
11:55 AM 33.8 °F 24.3 °F 26.6 °F 75% 29.99 in 10.0 mi North 13.8 mph 21.9 mph N/A   Overcast
12:15 PM 33.8 °F 23.9 °F 26.6 °F 75% 29.99 in 10.0 mi North 15.0 mph 18.4 mph N/A   Overcast
12:35 PM 33.8 °F 25.8 °F 26.6 °F 75% 29.99 in 10.0 mi NNW 10.4 mph - N/A   Overcast
12:55 PM 33.8 °F 24.8 °F 26.6 °F 75% 29.99 in 10.0 mi North 12.7 mph 18.4 mph N/A   Overcast
1:15 PM 33.8 °F 24.3 °F 26.6 °F 75% 29.99 in 10.0 mi NNW 13.8 mph 19.6 mph N/A   Overcast
1:35 PM 33.8 °F 24.3 °F 26.6 °F 75% 29.99 in 10.0 mi NNW 13.8 mph 18.4 mph N/A   Overcast
1:55 PM 33.8 °F 24.8 °F 26.6 °F 75% 30.00 in 10.0 mi NNW 12.7 mph - N/A   Overcast
2:15 PM 33.8 °F 26.4 °F 26.6 °F 75% 30.00 in 10.0 mi NNW 9.2 mph - N/A   Overcast
2:35 PM 33.8 °F 25.3 °F 26.6 °F 75% 30.00 in 10.0 mi North 11.5 mph - N/A   Overcast
2:55 PM 33.8 °F 24.8 °F 24.8 °F 70% 30.00 in 10.0 mi North 12.7 mph - N/A   Overcast
3:35 PM 33.8 °F 25.3 °F 24.8 °F 70% 30.01 in 10.0 mi North 11.5 mph - N/A   Overcast
3:55 PM 33.8 °F 26.4 °F 24.8 °F 70% 30.02 in 10.0 mi North 9.2 mph - N/A   Overcast
4:15 PM 32.0 °F 24.8 °F 24.8 °F 75% 30.02 in 10.0 mi North 8.1 mph - N/A   Overcast
4:35 PM 32.0 °F 24.2 °F 24.8 °F 75% 30.03 in 10.0 mi North 9.2 mph - N/A   Overcast
4:55 PM 32.0 °F 25.6 °F 24.8 °F 75% 30.03 in 10.0 mi North 6.9 mph - N/A   Overcast
5:15 PM 32.0 °F 24.2 °F 23.0 °F 69% 30.04 in 10.0 mi North 9.2 mph - N/A   Overcast
5:35 PM 32.0 °F 24.2 °F 23.0 °F 69% 30.04 in 10.0 mi North 9.2 mph - N/A   Overcast
5:55 PM 32.0 °F 25.6 °F 24.8 °F 75% 30.04 in 10.0 mi North 6.9 mph - N/A   Overcast
6:15 PM 32.0 °F 25.6 °F 24.8 °F 75% 30.05 in 10.0 mi North 6.9 mph - N/A   Overcast
6:35 PM 32.0 °F 27.5 °F 24.8 °F 75% 30.06 in 10.0 mi NNW 4.6 mph - N/A   Overcast
6:55 PM 32.0 °F 26.4 °F 24.8 °F 75% 30.06 in 10.0 mi NNW 5.8 mph - N/A   Overcast
7:15 PM 32.0 °F 27.5 °F 24.8 °F 75% 30.07 in 10.0 mi NNW 4.6 mph - N/A   Overcast
7:35 PM 32.0 °F 27.5 °F 24.8 °F 75% 30.07 in 10.0 mi NNW 4.6 mph - N/A   Overcast
7:55 PM 32.0 °F 28.7 °F 24.8 °F 75% 30.07 in 10.0 mi NNW 3.5 mph - N/A   Overcast
8:15 PM 32.0 °F 27.5 °F 24.8 °F 75% 30.07 in 10.0 mi North 4.6 mph - N/A   Overcast
8:35 PM 32.0 °F 24.8 °F 23.0 °F 69% 30.07 in 10.0 mi North 8.1 mph - N/A   Overcast
8:55 PM 30.2 °F 22.6 °F 24.8 °F 80% 30.07 in 10.0 mi NNE 8.1 mph - N/A   Overcast
9:15 PM 30.2 °F 21.9 °F 24.8 °F 80% 30.07 in 10.0 mi North 9.2 mph - N/A   Overcast
9:35 PM 30.2 °F 25.4 °F 23.0 °F 75% 30.08 in 10.0 mi North 4.6 mph - N/A   Overcast
10:55 PM 30.2 °F 26.7 °F 23.0 °F 75% 30.08 in 10.0 mi North 3.5 mph - N/A   Overcast
11:15 PM 30.2 °F 22.6 °F 23.0 °F 75% 30.09 in 10.0 mi ENE 8.1 mph - N/A   Overcast
11:35 PM 30.2 °F 21.9 °F 23.0 °F 75% 30.09 in 10.0 mi ENE 9.2 mph - N/A Snow Light Snow
11:55 PM 28.4 °F 19.7 °F 23.0 °F 80% 30.09 in 10.0 mi ENE 9.2 mph - N/A Snow Light Snow